Regional Weather Roundup
Issued by NWS Little Rock, AR

Home | Current Version | Previous Version | Text Only | Print | Product List | Glossary Off
Versions: 1 2 3 4 5 6 7 8 9 10 11 12 13 14 15 16 17 18 19 20 21 22 23 24 25 26 27 28 29 30 31 32 33 34 35 36 37 38 39 40 41 42 43 44 45 46 47 48 49 50

000
ASUS44 KLZK 020005
RWRLZK

WEATHER ROUNDUP FOR ARKANSAS
NATIONAL WEATHER SERVICE LITTLE ROCK AR
700 PM CDT MON SEP 01 2014

NOTE: "FAIR" INDICATES FEW OR NO CLOUDS BELOW 12,000 FEET WITH NO
SIGNIFICANT WEATHER AND/OR OBSTRUCTIONS TO VISIBILITY.

ARZ001-003-010-029-020100-
NORTHWEST ARKANSAS

CITY           SKY/WX    TMP DP  RH WIND       PRES   REMARKS
FAYETTEVILLE   CLEAR     84  69  60 S14G24    29.89S HX  88
6HR MIN TEMP:  83; 6HR MAX TEMP:  88;

FORT SMITH     CLEAR     89  69  51 S12       29.86S HX  93
6HR MIN TEMP:  89; 6HR MAX TEMP:  94;

HARRISON       CLEAR     82  70  66 S12       29.92F HX  86
6HR MIN TEMP:  78; 6HR MAX TEMP:  86;

BENTONVILLE    MOCLDY    84  70  61 S12G17    29.89F HX  88
6HR MIN TEMP:  77; 6HR MAX TEMP:  88;

ROGERS         MOCLDY    84  69  60 S14       29.89F HX  88
6HR MIN TEMP:  76; 6HR MAX TEMP:  89;

HIGHFILL       MOCLDY    86  71  60 S12       29.87F HX  91
6HR MIN TEMP:  78; 6HR MAX TEMP:  89;

SPRINGDALE     PTCLDY    84  70  61 S18       29.91F HX  88
$$

ARZ004-005-016-020100-
NORTH CENTRAL ARKANSAS

CITY           SKY/WX    TMP DP  RH WIND       PRES   REMARKS
BATESVILLE     CLEAR     88  70  55 S7        29.92S HX  92
6HR MIN TEMP:  88; 6HR MAX TEMP:  91;

FLIPPIN        PTCLDY    84  68  58 SE5       29.91S HX  87
6HR MIN TEMP:  75; 6HR MAX TEMP:  88;

MTN HOME       CLEAR     83  70  64 S8        29.90F HX  87
6HR MIN TEMP:  76; 6HR MAX TEMP:  89;

$$

ARZ040-041-020100-
WEST CENTRAL ARKANSAS

CITY           SKY/WX    TMP DP  RH WIND       PRES   REMARKS
MENA           CLEAR     88  72  58 CALM      29.93S HX  94
MOUNT IDA      CLEAR     85  73  67 CALM      29.91S HX  91
6HR MIN TEMP:  85; 6HR MAX TEMP:  89;

$$

ARZ009-017-025-026-028-020100-
NORTHEAST ARKANSAS

CITY           SKY/WX    TMP DP  RH WIND       PRES   REMARKS
CORNING        LGT RAIN  84  73  70 S10       29.92S HX  91
JONESBORO      CLEAR     86  72  62 S12       29.92S HX  92
6HR MIN TEMP:  86; 6HR MAX TEMP:  91;

NEWPORT        CLEAR     86  74  67 S9        29.93S HX  94
6HR MIN TEMP:  86; 6HR MAX TEMP:  92;

WALNUT RIDGE   CLEAR     84  57  39 S10       29.91S
6HR MIN TEMP:  84; 6HR MAX TEMP:  90;

BLYTHEVILLE    CLEAR     85  75  72 SW7       29.94R HX  93
6HR MIN TEMP:  85; 6HR MAX TEMP:  90;

$$

ARZ022-023-033-042-044-020100-
CENTRAL ARKANSAS

CITY           SKY/WX    TMP DP  RH WIND       PRES   REMARKS
LITTLE ROCK    PTCLDY    87  72  60 S8        29.92F HX  93
6HR MIN TEMP:  86; 6HR MAX TEMP:  91;

N LITTLE ROCK  PTCLDY    86  74  67 S10       29.92F HX  94
6HR MIN TEMP:  86; 6HR MAX TEMP:  91;

JACKSONVILLE   CLEAR     88  73  62 S9        29.92F HX  95
6HR MIN TEMP:  88; 6HR MAX TEMP:  92;

SEARCY         CLEAR     86  75  69 MISG      29.93S HX  95
6HR MIN TEMP:  86; 6HR MAX TEMP:  92;

HOT SPRINGS    CLEAR     87  71  58 S7        29.92F HX  93
6HR MIN TEMP:  85; 6HR MAX TEMP:  91;

RUSSELLVILLE   CLEAR     88  70  55 VRB5      29.90S HX  93
6HR MIN TEMP:  87; 6HR MAX TEMP:  92;

CLINTON        FAIR      88  72  58 S5        29.91S HX  94
$$

ARZ036-020100-
EAST ARKANSAS

CITY           SKY/WX    TMP DP  RH WIND       PRES   REMARKS
WEST MEMPHIS   CLEAR     85  74  69 S8        29.94R HX  92
6HR MIN TEMP:  85; 6HR MAX TEMP:  91;

$$

ARZ050-053-066-070-073-020100-
SOUTHWEST ARKANSAS

CITY           SKY/WX    TMP DP  RH WIND       PRES   REMARKS
ARKADELPHIA    FAIR      88  77  69 CALM      29.92S HX 100
6HR MIN TEMP:  87; 6HR MAX TEMP:  94;

CAMDEN         CLEAR     86  73  66 S9        29.92F HX  93
TEXARKANA      MOCLDY    91  71  51 S10       29.90S HX  97
6HR MIN TEMP:  89; 6HR MAX TEMP:  95;

EL DORADO      PTCLDY    85  76  74 SE6       29.94S HX  94
6HR MIN TEMP:  81; 6HR MAX TEMP:  90; 6HR PCP:  0.03;

DE QUEEN       CLEAR     89  72  56 SE3       29.87S HX  96
6HR MIN TEMP:  87; 6HR MAX TEMP:  92;

$$

ARZ056-057-069-020100-
SOUTHEAST ARKANSAS

CITY           SKY/WX    TMP DP  RH WIND       PRES   REMARKS
PINE BLUFF     CLEAR     85  72  65 S10       29.94S HX  91
6HR MIN TEMP:  85; 6HR MAX TEMP:  90;

STUTTGART      CLEAR     86  73  66 S9        29.94F HX  93
6HR MIN TEMP:  86; 6HR MAX TEMP:  91;

MONTICELLO     PTCLDY    86  75  69 S3        29.95S HX  95
6HR MIN TEMP:  85; 6HR MAX TEMP:  91; 6HR PCP:  0.01;


$$





USA.gov is the U.S. government's official web portal to all federal, state and local government web resources and services.